N7YET Weather Reports


time (UTC)temp
C
wind
direction
speed
KPH
gust
KPH
rain 1hr
cm
rain 24hr
cm
rain mn
cm
humidity
%
barometer
mb
20260505055356 5 27 19.3 24.1 0.00 0.00 0.00 51 1231.9
20260505054356 6 29 19.3 25.7 0.00 0.00 0.00 51 1231.9
20260505053355 6 26 20.9 30.6 0.00 0.00 0.00 51 1231.9
20260505052355 6 25 22.5 30.6 0.00 0.00 0.00 51 1231.9
20260505051354 6 21 20.9 30.6 0.00 0.00 0.00 51 1231.9
20260505050354 7 26 24.1 35.4 0.00 0.00 0.00 50 1231.9
20260505041351 7 28 30.6 43.5 0.00 0.00 0.00 47 1231.9
20260505040351 7 34 27.4 33.8 0.00 0.00 0.00 46 1231.9
20260505035350 7 36 29.0 40.2 0.00 0.00 0.00 45 1231.9
20260505034349 8 31 30.6 41.8 0.00 0.00 0.00 43 1231.9
20260505033349 8 33 27.4 37.0 0.00 0.00 0.00 42 1231.9
20260505032348 8 31 29.0 38.6 0.00 0.00 0.00 41 1231.9
20260505031347 8 33 29.0 37.0 0.00 0.00 0.00 40 1231.9
20260505030347 8 30 24.1 32.2 0.00 0.00 0.00 40 1231.9
20260505025346 8 29 24.1 35.4 0.00 0.00 0.00 40 1231.9
20260505024346 9 29 27.4 37.0 0.00 0.00 0.00 39 1231.9
20260505023345 9 29 30.6 40.2 0.00 0.00 0.00 39 1231.9
20260505022345 9 31 33.8 41.8 0.00 0.00 0.00 38 1231.9
20260505021344 9 23 33.8 46.7 0.00 0.00 0.00 38 1231.9
20260505020343 10 26 32.2 45.1 0.00 0.00 0.00 37 1231.9
20260505015343 10 26 32.2 41.8 0.00 0.00 0.00 36 1231.9
20260505014342 10 30 32.2 41.8 0.00 0.00 0.00 36 1231.9
20260505013341 11 31 37.0 43.5 0.00 0.00 0.00 35 1231.9
20260505012341 11 30 37.0 46.7 0.00 0.00 0.00 34 1231.9
20260505011340 12 33 35.4 43.5 0.00 0.00 0.00 34 1231.9
20260505010340 12 33 37.0 43.5 0.00 0.00 0.00 34 1231.9
20260505005339 12 23 37.0 46.7 0.00 0.00 0.00 34 1231.9
20260505004338 12 27 38.6 48.3 0.00 0.00 0.00 33 1231.9
20260505003338 12 25 37.0 43.5 0.00 0.00 0.00 33 1231.9
20260505002337 13 25 37.0 45.1 0.00 0.00 0.00 33 1231.9
20260505001336 13 22 35.4 43.5 0.00 0.00 0.00 32 1231.9
20260505000336 14 25 32.2 40.2 0.00 0.00 0.00 32 1231.9
20260504235335 14 27 33.8 41.8 0.00 0.00 0.00 32 1231.9
20260504234335 15 21 30.6 40.2 0.00 0.00 0.00 32 1231.9
20260504233334 16 16 29.0 41.8 0.00 0.00 0.00 32 1231.9
20260504232333 16 21 29.0 40.2 0.00 0.00 0.00 32 1231.9
20260504231333 17 20 29.0 40.2 0.00 0.00 0.00 32 1231.9
20260504230332 17 19 27.4 41.8 0.00 0.00 0.00 32 1231.9
20260504225331 18 23 25.7 37.0 0.00 0.00 0.00 31 1231.9
20260504224331 18 17 20.9 30.6 0.00 0.00 0.00 31 1231.9
20260504223330 18 15 17.7 27.4 0.00 0.00 0.00 31 1231.9
20260504222330 17 30 16.1 22.5 0.00 0.00 0.00 31 1231.9
20260504221329 17 7 16.1 22.5 0.00 0.00 0.00 32 1231.9
20260504220328 17 21 17.7 27.4 0.00 0.00 0.00 32 1231.9
20260504215328 17 17 17.7 27.4 0.00 0.00 0.00 32 1231.9
20260504214327 17 7 16.1 25.7 0.00 0.00 0.00 32 1231.9
20260504213327 17 21 14.5 24.1 0.00 0.00 0.00 32 1231.9
20260504212326 18 26 14.5 24.1 0.00 0.00 0.00 31 1231.9
20260504211326 18 10 16.1 24.1 0.00 0.00 0.00 31 1231.9
20260504210325 17 358 14.5 24.1 0.00 0.00 0.00 32 1231.9
20260504205325 17 26 11.3 20.9 0.00 0.00 0.00 33 1231.9
20260504204324 17 34 14.5 24.1 0.00 0.00 0.00 33 1231.9
20260504203323 17 24 14.5 27.4 0.00 0.00 0.00 33 1231.9
20260504202323 17 357 12.9 22.5 0.00 0.00 0.00 33 1231.9
20260504201322 16 9 14.5 20.9 0.00 0.00 0.00 34 1231.9
20260504200321 16 359 12.9 22.5 0.00 0.00 0.00 34 1231.9
20260504195321 16 6 12.9 22.5 0.00 0.00 0.00 34 1231.9
20260504194320 16 5 14.5 22.5 0.00 0.00 0.00 34 1231.9
20260504193320 16 10 16.1 25.7 0.00 0.00 0.00 34 1231.9
20260504192319 15 23 16.1 29.0 0.00 0.00 0.00 35 1231.9
20260504191319 15 27 14.5 27.4 0.00 0.00 0.00 35 1231.9
20260504190318 15 19 16.1 27.4 0.00 0.00 0.00 35 1231.9
20260504185317 15 14 16.1 22.5 0.00 0.00 0.00 36 1231.9
20260504184317 14 16 16.1 25.7 0.00 0.00 0.00 36 1231.9
20260504183316 14 29 14.5 25.7 0.00 0.00 0.00 36 1231.9
20260504182315 14 15 16.1 32.2 0.00 0.00 0.00 37 1231.9
20260504181315 13 17 16.1 27.4 0.00 0.00 0.00 37 1231.9
20260504180314 13 17 16.1 30.6 0.00 0.00 0.00 38 1231.9
20260504175314 13 24 19.3 32.2 0.00 0.00 0.00 38 1231.9
20260504174313 13 21 17.7 30.6 0.00 0.00 0.00 39 1231.9
20260504173313 13 21 17.7 25.7 0.00 0.00 0.00 39 1231.9
20260504172312 12 19 20.9 30.6 0.00 0.00 0.00 39 1231.9
20260504171311 12 36 24.1 32.2 0.00 0.00 0.00 39 1231.9
20260504170311 12 26 22.5 30.6 0.00 0.00 0.00 40 1231.9
20260504160307 11 4 17.7 25.7 0.00 0.00 0.00 42 1231.9
20260504150304 9 28 20.9 27.4 0.00 0.00 0.00 45 1231.9
20260504141301 8 30 17.7 29.0 0.00 0.00 0.00 46 1231.9
20260504140301 7 39 19.3 25.7 0.00 0.00 0.00 47 1231.9
20260504130257 6 40 14.5 19.3 0.00 0.00 0.00 51 1231.9
20260504120254 4 45 8.0 12.9 0.00 0.00 0.00 51 1231.9
20260504110250 2 0 0.0 0.0 0.00 0.00 0.00 51 1231.9
20260504100246 2 0 0.0 0.0 0.00 0.00 0.00 49 1231.9
20260504081239 6 129 0.0 6.4 0.00 0.00 0.00 33 1231.9
20260504080239 6 0 0.0 0.0 0.00 0.00 0.00 32 1231.9
20260504070235 9 148 6.4 8.0 0.00 0.00 0.00 31 1231.9
20260504060232 8 144 3.2 8.0 0.00 0.00 0.00 30 1231.9